| time (UTC) | temp F | wind direction | speed MPH | gust MPH | rain 1hr in | rain 24hr in | rain mn in | humidity % | barometer mb |
| 20260502234556 | 59 | 186 | 2.0 | 5.0 | 0.00 | 0.00 | 0.00 | 56 | 1014.0 |
| 20260502234056 | 59 | 186 | 2.0 | 6.0 | 0.00 | 0.00 | 0.00 | 55 | 1014.1 |
| 20260502233556 | 59 | 180 | 3.0 | 8.0 | 0.00 | 0.00 | 0.00 | 55 | 1014.1 |
| 20260502233057 | 59 | 360 | 4.0 | 8.0 | 0.00 | 0.00 | 0.00 | 55 | 1014.1 |
| 20260502232559 | 59 | 170 | 3.0 | 8.0 | 0.00 | 0.00 | 0.00 | 56 | 1014.1 |
| 20260502232056 | 59 | 178 | 3.0 | 8.0 | 0.00 | 0.00 | 0.00 | 55 | 1014.1 |
| 20260502231600 | 60 | 360 | 4.0 | 8.0 | 0.00 | 0.00 | 0.00 | 55 | 1014.1 |
| 20260502231057 | 60 | 360 | 4.0 | 8.0 | 0.00 | 0.00 | 0.00 | 55 | 1014.1 |
| 20260502230557 | 60 | 159 | 4.0 | 8.0 | 0.00 | 0.00 | 0.00 | 55 | 1014.1 |
| 20260502230058 | 60 | 360 | 4.0 | 8.0 | 0.00 | 0.00 | 0.00 | 55 | 1014.1 |
| 20260502225555 | 60 | 360 | 3.0 | 8.0 | 0.00 | 0.00 | 0.00 | 55 | 1014.1 |
| 20260502225057 | 60 | 360 | 3.0 | 8.0 | 0.00 | 0.00 | 0.00 | 55 | 1014.2 |
| 20260502224604 | 60 | 360 | 4.0 | 9.0 | 0.00 | 0.00 | 0.00 | 55 | 1014.2 |
| 20260502224056 | 60 | 360 | 4.0 | 9.0 | 0.00 | 0.00 | 0.00 | 55 | 1014.2 |
| 20260502223556 | 60 | 360 | 4.0 | 9.0 | 0.00 | 0.00 | 0.00 | 55 | 1014.2 |
| 20260502223057 | 60 | 360 | 4.0 | 10.0 | 0.00 | 0.00 | 0.00 | 55 | 1014.2 |
| 20260502222555 | 60 | 360 | 4.0 | 10.0 | 0.00 | 0.00 | 0.00 | 55 | 1014.3 |
| 20260502222055 | 61 | 360 | 5.0 | 10.0 | 0.00 | 0.00 | 0.00 | 55 | 1014.3 |
| 20260502221556 | 61 | 360 | 4.0 | 10.0 | 0.00 | 0.00 | 0.00 | 55 | 1014.3 |
| 20260502221057 | 61 | 360 | 3.0 | 8.0 | 0.00 | 0.00 | 0.00 | 55 | 1014.2 |
| 20260502220556 | 61 | 360 | 4.0 | 8.0 | 0.00 | 0.00 | 0.00 | 55 | 1014.3 |
| 20260502220056 | 61 | 360 | 4.0 | 8.0 | 0.00 | 0.00 | 0.00 | 55 | 1014.3 |
| 20260502215556 | 61 | 360 | 4.0 | 8.0 | 0.00 | 0.00 | 0.00 | 55 | 1014.3 |
| 20260502215055 | 61 | 360 | 3.0 | 8.0 | 0.00 | 0.00 | 0.00 | 55 | 1014.3 |
| 20260502214558 | 61 | 360 | 4.0 | 8.0 | 0.00 | 0.00 | 0.00 | 55 | 1014.3 |
| 20260502214057 | 61 | 172 | 4.0 | 7.0 | 0.00 | 0.00 | 0.00 | 55 | 1014.3 |
| 20260502213556 | 61 | 360 | 4.0 | 8.0 | 0.00 | 0.00 | 0.00 | 55 | 1014.4 |
| 20260502213059 | 62 | 360 | 4.0 | 8.0 | 0.00 | 0.00 | 0.00 | 56 | 1014.5 |
| 20260502212556 | 62 | 360 | 3.0 | 6.0 | 0.00 | 0.00 | 0.00 | 56 | 1014.5 |
| 20260502212056 | 62 | 360 | 3.0 | 6.0 | 0.00 | 0.00 | 0.00 | 56 | 1014.5 |
| 20260502211555 | 62 | 360 | 3.0 | 6.0 | 0.00 | 0.00 | 0.00 | 56 | 1014.6 |
| 20260502211059 | 62 | 360 | 3.0 | 7.0 | 0.00 | 0.00 | 0.00 | 56 | 1014.6 |
| 20260502210555 | 62 | 360 | 3.0 | 7.0 | 0.00 | 0.00 | 0.00 | 56 | 1014.6 |
| 20260502210115 | 63 | 172 | 3.0 | 7.0 | 0.00 | 0.00 | 0.00 | 56 | 1014.6 |
| 20260502205556 | 63 | 360 | 3.0 | 6.0 | 0.00 | 0.00 | 0.00 | 56 | 1014.7 |
| 20260502205100 | 63 | 155 | 2.0 | 6.0 | 0.00 | 0.00 | 0.00 | 55 | 1014.6 |
| 20260502204559 | 63 | 156 | 2.0 | 6.0 | 0.00 | 0.00 | 0.00 | 55 | 1014.7 |
| 20260502204057 | 64 | 142 | 2.0 | 5.0 | 0.00 | 0.00 | 0.00 | 55 | 1014.7 |
| 20260502203559 | 64 | 152 | 2.0 | 6.0 | 0.00 | 0.00 | 0.00 | 54 | 1014.7 |
| 20260502203054 | 64 | 161 | 2.0 | 7.0 | 0.00 | 0.00 | 0.00 | 54 | 1014.7 |
| 20260502202558 | 64 | 150 | 2.0 | 7.0 | 0.00 | 0.00 | 0.00 | 54 | 1014.7 |
| 20260502202057 | 65 | 139 | 2.0 | 5.0 | 0.00 | 0.00 | 0.00 | 54 | 1014.7 |
| 20260502201557 | 65 | 137 | 2.0 | 5.0 | 0.00 | 0.00 | 0.00 | 55 | 1014.8 |
| 20260502201057 | 65 | 137 | 2.0 | 4.0 | 0.00 | 0.00 | 0.00 | 54 | 1014.8 |
| 20260502200558 | 65 | 137 | 2.0 | 4.0 | 0.00 | 0.00 | 0.00 | 53 | 1014.8 |
| 20260502200058 | 66 | 138 | 2.0 | 5.0 | 0.00 | 0.00 | 0.00 | 53 | 1014.9 |
| 20260502195557 | 66 | 137 | 2.0 | 5.0 | 0.00 | 0.00 | 0.00 | 52 | 1014.9 |
| 20260502195056 | 66 | 126 | 2.0 | 4.0 | 0.00 | 0.00 | 0.00 | 53 | 1015.0 |
| 20260502194556 | 66 | 124 | 1.0 | 6.0 | 0.00 | 0.00 | 0.00 | 52 | 1015.0 |
| 20260502194100 | 67 | 124 | 2.0 | 6.0 | 0.00 | 0.00 | 0.00 | 52 | 1014.9 |
| 20260502193556 | 67 | 121 | 3.0 | 6.0 | 0.00 | 0.00 | 0.00 | 52 | 1014.9 |
| 20260502193103 | 67 | 144 | 3.0 | 6.0 | 0.00 | 0.00 | 0.00 | 51 | 1015.0 |
| 20260502192558 | 67 | 150 | 3.0 | 6.0 | 0.00 | 0.00 | 0.00 | 50 | 1015.0 |
| 20260502192057 | 68 | 130 | 2.0 | 5.0 | 0.00 | 0.00 | 0.00 | 48 | 1014.9 |
| 20260502191602 | 68 | 131 | 2.0 | 5.0 | 0.00 | 0.00 | 0.00 | 47 | 1014.9 |
| 20260502191057 | 68 | 127 | 2.0 | 5.0 | 0.00 | 0.00 | 0.00 | 45 | 1014.8 |
| 20260502190558 | 69 | 188 | 2.0 | 4.0 | 0.00 | 0.00 | 0.00 | 44 | 1014.9 |
| 20260502190107 | 69 | 188 | 2.0 | 4.0 | 0.00 | 0.00 | 0.00 | 44 | 1014.9 |
| 20260502185556 | 70 | 198 | 2.0 | 3.0 | 0.00 | 0.00 | 0.00 | 44 | 1014.8 |
| 20260502185057 | 70 | 360 | 2.0 | 3.0 | 0.00 | 0.00 | 0.00 | 43 | 1014.8 |
| 20260502184601 | 71 | 360 | 2.0 | 3.0 | 0.00 | 0.00 | 0.00 | 43 | 1014.8 |
| 20260502184057 | 71 | 360 | 2.0 | 3.0 | 0.00 | 0.00 | 0.00 | 43 | 1014.8 |
| 20260502183557 | 72 | 360 | 2.0 | 3.0 | 0.00 | 0.00 | 0.00 | 42 | 1014.7 |
| 20260502183111 | 72 | 360 | 1.0 | 3.0 | 0.00 | 0.00 | 0.00 | 41 | 1014.7 |
| 20260502182558 | 73 | 199 | 1.0 | 3.0 | 0.00 | 0.00 | 0.00 | 40 | 1014.8 |
| 20260502182056 | 73 | 199 | 1.0 | 3.0 | 0.00 | 0.00 | 0.00 | 39 | 1014.7 |
| 20260502181557 | 74 | 199 | 1.0 | 3.0 | 0.00 | 0.00 | 0.00 | 38 | 1014.8 |
| 20260502181057 | 74 | 198 | 2.0 | 3.0 | 0.00 | 0.00 | 0.00 | 37 | 1014.7 |
| 20260502180602 | 74 | 198 | 1.0 | 4.0 | 0.00 | 0.00 | 0.00 | 36 | 1014.8 |
| 20260502164057 | 78 | 222 | 3.0 | 6.0 | 0.00 | 0.00 | 0.00 | 32 | 1015.3 |
| 20260502163557 | 78 | 220 | 3.0 | 5.0 | 0.00 | 0.00 | 0.00 | 30 | 1015.4 |
| 20260502163057 | 79 | 230 | 2.0 | 8.0 | 0.00 | 0.00 | 0.00 | 31 | 1015.4 |
| 20260502162557 | 79 | 221 | 3.0 | 9.0 | 0.00 | 0.00 | 0.00 | 30 | 1015.5 |
| 20260502162057 | 79 | 205 | 4.0 | 9.0 | 0.00 | 0.00 | 0.00 | 30 | 1015.5 |
| 20260502161623 | 80 | 208 | 2.0 | 6.0 | 0.00 | 0.00 | 0.00 | 29 | 1015.6 |
| 20260502161057 | 80 | 187 | 3.0 | 6.0 | 0.00 | 0.00 | 0.00 | 30 | 1015.7 |
| 20260502160556 | 80 | 210 | 2.0 | 6.0 | 0.00 | 0.00 | 0.00 | 31 | 1015.7 |
| 20260502152059 | 81 | 253 | 3.0 | 9.0 | 0.00 | 0.00 | 0.00 | 27 | 1016.1 |
| 20260502151609 | 81 | 211 | 3.0 | 12.0 | 0.00 | 0.00 | 0.00 | 30 | 1016.1 |
| 20260502151056 | 81 | 236 | 4.0 | 12.0 | 0.00 | 0.00 | 0.00 | 28 | 1016.1 |
| 20260502150557 | 81 | 209 | 5.0 | 12.0 | 0.00 | 0.00 | 0.00 | 29 | 1016.3 |
| 20260502130556 | 82 | 236 | 6.0 | 13.0 | 0.00 | 0.00 | 0.00 | 29 | 1017.5 |
| 20260502123556 | 82 | 269 | 3.0 | 11.0 | 0.00 | 0.00 | 0.00 | 26 | 1017.9 |
| 20260502123100 | 82 | 215 | 6.0 | 11.0 | 0.00 | 0.00 | 0.00 | 27 | 1017.9 |
| 20260502122557 | 82 | 245 | 3.0 | 14.0 | 0.00 | 0.00 | 0.00 | 27 | 1018.0 |
| 20260502122056 | 82 | 223 | 8.0 | 14.0 | 0.00 | 0.00 | 0.00 | 27 | 1018.0 |
| 20260502121559 | 82 | 223 | 5.0 | 12.0 | 0.00 | 0.00 | 0.00 | 24 | 1018.1 |
| 20260502121057 | 81 | 230 | 5.0 | 12.0 | 0.00 | 0.00 | 0.00 | 25 | 1018.1 |
| 20260502120558 | 81 | 161 | 5.0 | 10.0 | 0.00 | 0.00 | 0.00 | 24 | 1018.1 |
| 20260502115556 | 81 | 148 | 2.0 | 9.0 | 0.00 | 0.00 | 0.00 | 28 | 1018.3 |
| 20260502115059 | 81 | 134 | 3.0 | 11.0 | 0.00 | 0.00 | 0.00 | 28 | 1018.4 |
| 20260502114557 | 80 | 188 | 4.0 | 11.0 | 0.00 | 0.00 | 0.00 | 28 | 1018.5 |
| 20260502114059 | 80 | 247 | 5.0 | 10.0 | 0.00 | 0.00 | 0.00 | 29 | 1018.5 |
| 20260502113556 | 80 | 240 | 5.0 | 9.0 | 0.00 | 0.00 | 0.00 | 31 | 1018.6 |
| 20260502113057 | 80 | 0 | 4.0 | 11.0 | 0.00 | 0.00 | 0.00 | 30 | 1018.7 |
| 20260502112555 | 80 | 235 | 5.0 | 11.0 | 0.00 | 0.00 | 0.00 | 31 | 1018.8 |
| 20260502112055 | 80 | 228 | 5.0 | 11.0 | 0.00 | 0.00 | 0.00 | 30 | 1018.9 |
| 20260502111606 | 80 | 242 | 3.0 | 9.0 | 0.00 | 0.00 | 0.00 | 30 | 1018.9 |
| 20260502111055 | 79 | 243 | 3.0 | 13.0 | 0.00 | 0.00 | 0.00 | 32 | 1019.0 |
| 20260502110557 | 79 | 229 | 7.0 | 13.0 | 0.00 | 0.00 | 0.00 | 32 | 1019.0 |
| 20260502110058 | 79 | 238 | 4.0 | 10.0 | 0.00 | 0.00 | 0.00 | 32 | 1019.1 |
| 20260502105558 | 78 | 221 | 4.0 | 9.0 | 0.00 | 0.00 | 0.00 | 35 | 1019.2 |
| 20260502105057 | 78 | 188 | 4.0 | 12.0 | 0.00 | 0.00 | 0.00 | 35 | 1019.3 |
| 20260502104559 | 78 | 223 | 6.0 | 12.0 | 0.00 | 0.00 | 0.00 | 33 | 1019.3 |
| 20260502104056 | 78 | 223 | 6.0 | 12.0 | 0.00 | 0.00 | 0.00 | 34 | 1019.4 |
| 20260502103558 | 77 | 232 | 6.0 | 13.0 | 0.00 | 0.00 | 0.00 | 32 | 1019.5 |
| 20260502103059 | 77 | 232 | 7.0 | 13.0 | 0.00 | 0.00 | 0.00 | 33 | 1019.6 |
| 20260502102557 | 77 | 181 | 6.0 | 12.0 | 0.00 | 0.00 | 0.00 | 32 | 1019.6 |
| 20260502102056 | 77 | 221 | 3.0 | 12.0 | 0.00 | 0.00 | 0.00 | 37 | 1019.7 |
| 20260502101555 | 77 | 238 | 5.0 | 13.0 | 0.00 | 0.00 | 0.00 | 35 | 1019.8 |
| 20260502101055 | 77 | 224 | 4.0 | 14.0 | 0.00 | 0.00 | 0.00 | 33 | 1019.9 |
| 20260502100556 | 77 | 164 | 8.0 | 14.0 | 0.00 | 0.00 | 0.00 | 35 | 1020.0 |
| 20260502091056 | 75 | 196 | 6.0 | 15.0 | 0.00 | 0.00 | 0.00 | 34 | 1020.4 |
| 20260502090558 | 75 | 199 | 6.0 | 12.0 | 0.00 | 0.00 | 0.00 | 34 | 1020.3 |
| 20260502090114 | 75 | 213 | 5.0 | 12.0 | 0.00 | 0.00 | 0.00 | 35 | 1020.4 |
| 20260502071057 | 64 | 159 | 1.0 | 6.0 | 0.00 | 0.00 | 0.00 | 56 | 1021.1 |
| 20260502070556 | 64 | 178 | 2.0 | 8.0 | 0.00 | 0.00 | 0.00 | 54 | 1021.3 |
| 20260502070109 | 63 | 144 | 3.0 | 8.0 | 0.00 | 0.00 | 0.00 | 55 | 1021.2 |
| 20260502065556 | 62 | 360 | 1.0 | 5.0 | 0.00 | 0.00 | 0.00 | 57 | 1021.3 |
| 20260502065056 | 62 | 360 | 2.0 | 5.0 | 0.00 | 0.00 | 0.00 | 58 | 1021.4 |
| 20260502064557 | 61 | 360 | 2.0 | 8.0 | 0.00 | 0.00 | 0.00 | 57 | 1021.4 |
| 20260502064056 | 61 | 360 | 4.0 | 8.0 | 0.00 | 0.00 | 0.00 | 58 | 1021.4 |
| 20260502063556 | 60 | 360 | 3.0 | 10.0 | 0.00 | 0.00 | 0.00 | 58 | 1021.5 |
| 20260502063057 | 60 | 360 | 4.0 | 10.0 | 0.00 | 0.00 | 0.00 | 59 | 1021.5 |
| 20260502062556 | 59 | 360 | 4.0 | 9.0 | 0.00 | 0.00 | 0.00 | 59 | 1021.5 |
| 20260502062056 | 59 | 360 | 3.0 | 8.0 | 0.00 | 0.00 | 0.00 | 60 | 1021.5 |
| 20260502061557 | 58 | 360 | 3.0 | 8.0 | 0.00 | 0.00 | 0.00 | 62 | 1021.5 |
| 20260502061055 | 57 | 0 | 0.0 | 6.0 | 0.00 | 0.00 | 0.00 | 64 | 1021.5 |
| 20260502060559 | 57 | 175 | 2.0 | 6.0 | 0.00 | 0.00 | 0.00 | 65 | 1021.6 |
| 20260502060055 | 56 | 175 | 2.0 | 6.0 | 0.00 | 0.00 | 0.00 | 65 | 1021.6 |
| 20260502055557 | 56 | 0 | 2.0 | 8.0 | 0.00 | 0.00 | 0.00 | 65 | 1021.6 |
| 20260502055056 | 55 | 163 | 3.0 | 9.0 | 0.00 | 0.00 | 0.00 | 65 | 1021.6 |
| 20260502054556 | 55 | 171 | 4.0 | 9.0 | 0.00 | 0.00 | 0.00 | 67 | 1021.6 |
| 20260502054056 | 54 | 146 | 2.0 | 7.0 | 0.00 | 0.00 | 0.00 | 67 | 1021.7 |
| 20260502053559 | 53 | 159 | 2.0 | 7.0 | 0.00 | 0.00 | 0.00 | 68 | 1021.7 |
| 20260502053124 | 53 | 360 | 2.0 | 6.0 | 0.00 | 0.00 | 0.00 | 69 | 1021.7 |
| 20260502052557 | 52 | 360 | 2.0 | 6.0 | 0.00 | 0.00 | 0.00 | 69 | 1021.7 |
| 20260502052100 | 52 | 360 | 2.0 | 6.0 | 0.00 | 0.00 | 0.00 | 70 | 1021.7 |
| 20260502051614 | 51 | 360 | 2.0 | 5.0 | 0.00 | 0.00 | 0.00 | 71 | 1021.8 |
| 20260502051100 | 51 | 360 | 2.0 | 4.0 | 0.00 | 0.00 | 0.00 | 71 | 1021.7 |
| 20260502050601 | 51 | 360 | 1.0 | 4.0 | 0.00 | 0.00 | 0.00 | 71 | 1021.7 |
| 20260502050059 | 51 | 360 | 1.0 | 6.0 | 0.00 | 0.00 | 0.00 | 71 | 1021.8 |
| 20260502045557 | 50 | 360 | 2.0 | 6.0 | 0.00 | 0.00 | 0.00 | 71 | 1021.7 |
| 20260502045059 | 50 | 360 | 3.0 | 5.0 | 0.00 | 0.00 | 0.00 | 71 | 1021.7 |
| 20260502044557 | 50 | 360 | 1.0 | 4.0 | 0.00 | 0.00 | 0.00 | 71 | 1021.7 |
| 20260502044059 | 50 | 360 | 2.0 | 4.0 | 0.00 | 0.00 | 0.00 | 70 | 1021.8 |
| 20260502043557 | 50 | 360 | 1.0 | 5.0 | 0.00 | 0.00 | 0.00 | 70 | 1021.8 |
| 20260502043111 | 50 | 360 | 1.0 | 6.0 | 0.00 | 0.00 | 0.00 | 70 | 1021.8 |
| 20260502042558 | 50 | 360 | 2.0 | 8.0 | 0.00 | 0.00 | 0.00 | 70 | 1021.7 |
| 20260502042058 | 50 | 360 | 3.0 | 8.0 | 0.00 | 0.00 | 0.00 | 70 | 1021.7 |
| 20260502041626 | 50 | 360 | 3.0 | 8.0 | 0.00 | 0.00 | 0.00 | 70 | 1021.7 |
| 20260502041057 | 50 | 360 | 3.0 | 8.0 | 0.00 | 0.00 | 0.00 | 70 | 1021.8 |
| 20260502040557 | 50 | 360 | 3.0 | 8.0 | 0.00 | 0.00 | 0.00 | 69 | 1021.7 |
| 20260502040057 | 50 | 360 | 3.0 | 5.0 | 0.00 | 0.00 | 0.00 | 68 | 1021.7 |
| 20260502035557 | 51 | 360 | 2.0 | 5.0 | 0.00 | 0.00 | 0.00 | 68 | 1021.8 |
| 20260502035057 | 51 | 360 | 2.0 | 5.0 | 0.00 | 0.00 | 0.00 | 67 | 1021.8 |
| 20260502034555 | 51 | 360 | 1.0 | 4.0 | 0.00 | 0.00 | 0.00 | 66 | 1021.8 |
| 20260502034056 | 52 | 360 | 1.0 | 4.0 | 0.00 | 0.00 | 0.00 | 66 | 1021.9 |
| 20260502033559 | 52 | 360 | 1.0 | 6.0 | 0.00 | 0.00 | 0.00 | 66 | 1021.9 |
| 20260502033107 | 52 | 360 | 0.0 | 8.0 | 0.00 | 0.00 | 0.00 | 66 | 1021.9 |
| 20260502032557 | 52 | 360 | 2.0 | 8.0 | 0.00 | 0.00 | 0.00 | 66 | 1021.9 |
| 20260502032057 | 52 | 360 | 2.0 | 9.0 | 0.00 | 0.00 | 0.00 | 66 | 1022.0 |
| 20260502031556 | 51 | 360 | 3.0 | 9.0 | 0.00 | 0.00 | 0.00 | 67 | 1022.1 |
| 20260502031058 | 51 | 360 | 4.0 | 8.0 | 0.00 | 0.00 | 0.00 | 67 | 1022.1 |
| 20260502030558 | 51 | 360 | 4.0 | 9.0 | 0.00 | 0.00 | 0.00 | 68 | 1022.0 |
| 20260502030058 | 51 | 360 | 4.0 | 10.0 | 0.00 | 0.00 | 0.00 | 68 | 1022.0 |
| 20260502025557 | 51 | 360 | 5.0 | 10.0 | 0.00 | 0.00 | 0.00 | 68 | 1022.2 |
| 20260502025057 | 51 | 360 | 4.0 | 8.0 | 0.00 | 0.00 | 0.00 | 68 | 1022.3 |
| 20260502024557 | 50 | 360 | 4.0 | 8.0 | 0.00 | 0.00 | 0.00 | 68 | 1022.2 |
| 20260502024058 | 50 | 360 | 3.0 | 8.0 | 0.00 | 0.00 | 0.00 | 68 | 1022.3 |
| 20260502023559 | 50 | 360 | 3.0 | 6.0 | 0.00 | 0.00 | 0.00 | 68 | 1022.4 |
| 20260502023059 | 50 | 360 | 3.0 | 6.0 | 0.00 | 0.00 | 0.00 | 68 | 1022.5 |
| 20260502022556 | 51 | 360 | 3.0 | 6.0 | 0.00 | 0.00 | 0.00 | 68 | 1022.5 |
| 20260502022056 | 51 | 360 | 4.0 | 6.0 | 0.00 | 0.00 | 0.00 | 67 | 1022.5 |
| 20260502021557 | 51 | 360 | 2.0 | 5.0 | 0.00 | 0.00 | 0.00 | 66 | 1022.6 |
| 20260502021056 | 51 | 360 | 2.0 | 5.0 | 0.00 | 0.00 | 0.00 | 66 | 1022.7 |
| 20260502020558 | 52 | 360 | 2.0 | 5.0 | 0.00 | 0.00 | 0.00 | 65 | 1022.7 |
| 20260502020106 | 52 | 360 | 2.0 | 5.0 | 0.00 | 0.00 | 0.00 | 64 | 1022.7 |
| 20260502015556 | 53 | 360 | 2.0 | 4.0 | 0.00 | 0.00 | 0.00 | 64 | 1022.6 |
| 20260502015056 | 53 | 360 | 1.0 | 4.0 | 0.00 | 0.00 | 0.00 | 63 | 1022.8 |
| 20260502014559 | 53 | 360 | 0.0 | 5.0 | 0.00 | 0.00 | 0.00 | 64 | 1022.8 |
| 20260502014056 | 53 | 0 | 1.0 | 5.0 | 0.00 | 0.00 | 0.00 | 63 | 1022.8 |
| 20260502013557 | 54 | 360 | 1.0 | 6.0 | 0.00 | 0.00 | 0.00 | 62 | 1022.8 |
| 20260502013101 | 54 | 360 | 2.0 | 6.0 | 0.00 | 0.00 | 0.00 | 62 | 1022.9 |
| 20260502012559 | 54 | 360 | 3.0 | 6.0 | 0.00 | 0.00 | 0.00 | 62 | 1022.9 |
| 20260502012056 | 54 | 360 | 2.0 | 6.0 | 0.00 | 0.00 | 0.00 | 62 | 1022.9 |
| 20260502011603 | 54 | 360 | 3.0 | 6.0 | 0.00 | 0.00 | 0.00 | 62 | 1023.0 |
| 20260502011056 | 54 | 360 | 3.0 | 6.0 | 0.00 | 0.00 | 0.00 | 62 | 1023.0 |
| 20260502010558 | 54 | 360 | 2.0 | 6.0 | 0.00 | 0.00 | 0.00 | 62 | 1023.1 |
| 20260502005556 | 54 | 360 | 3.0 | 9.0 | 0.00 | 0.00 | 0.00 | 62 | 1023.1 |
| 20260502005056 | 54 | 360 | 2.0 | 8.0 | 0.00 | 0.00 | 0.00 | 62 | 1023.2 |
| 20260502004555 | 54 | 360 | 4.0 | 8.0 | 0.00 | 0.00 | 0.00 | 63 | 1023.2 |
| 20260502004057 | 54 | 360 | 3.0 | 8.0 | 0.00 | 0.00 | 0.00 | 63 | 1023.2 |
| 20260502003556 | 53 | 360 | 3.0 | 8.0 | 0.00 | 0.00 | 0.00 | 63 | 1023.2 |
| 20260502003055 | 53 | 360 | 3.0 | 9.0 | 0.00 | 0.00 | 0.00 | 63 | 1023.4 |
| 20260502002557 | 53 | 360 | 3.0 | 9.0 | 0.00 | 0.00 | 0.00 | 64 | 1023.4 |
| 20260502002056 | 53 | 360 | 4.0 | 8.0 | 0.00 | 0.00 | 0.00 | 64 | 1023.4 |
| 20260502001602 | 53 | 360 | 2.0 | 6.0 | 0.00 | 0.00 | 0.00 | 64 | 1023.5 |
| 20260502001056 | 53 | 360 | 3.0 | 5.0 | 0.00 | 0.00 | 0.00 | 64 | 1023.5 |
| 20260502000556 | 53 | 360 | 2.0 | 9.0 | 0.00 | 0.00 | 0.00 | 65 | 1023.5 |
| 20260502000058 | 53 | 360 | 3.0 | 9.0 | 0.00 | 0.00 | 0.00 | 65 | 1023.6 |
| 20260501235559 | 53 | 360 | 3.0 | 10.0 | 0.00 | 0.00 | 0.00 | 65 | 1023.6 |
| 20260501235056 | 53 | 360 | 3.0 | 10.0 | 0.00 | 0.00 | 0.00 | 65 | 1023.7 |